Date_and_time,latitude,longitude,wind_speed,RelWindDirFrom,WindDirFrom,air_pressure,air_temperature,relative_humidity,Temp,platform_speed_wrt_ground,air_pressure_at_mean_sea_level,platform_orientation
2019-10-01 23:50,50.630455,-96.9807433333333,7.4,11.2,319,996.75,5.1,79,10.36,0.0,1024.32,338.8
2019-10-02 00:00,50.6304416666667,-96.9807466666667,7.4,10.7,316,996.71,5.1,79,10.39,0.0,1024.28,314.4
2019-10-02 00:10,50.6304433333333,-96.9807433333333,7.2,10.4,323,996.80,5.1,79,10.40,0.0,1024.37,314.4
2019-10-02 00:20,50.6304416666667,-96.980745,6.6,9.1,309,996.85,5.0,78,10.40,0.0,1024.42,314.4
2019-10-02 00:30,50.6304583333333,-96.9807516666667,6.8,9.9,320,996.82,5.0,79,10.37,0.0,1024.40,314.4
2019-10-02 00:40,50.6304483333333,-96.98076,7.0,11.5,317,996.98,5.0,79,10.38,0.0,1024.56,314.4
2019-10-02 00:50,50.6304483333333,-96.9807583333333,7.8,11.4,317,997.04,4.9,80,10.43,0.0,1024.61,314.4
2019-10-02 01:00,50.630445,-96.9807583333333,7.7,12.7,321,997.03,4.8,80,10.43,0.0,1024.62,261.2
2019-10-02 01:10,50.6304466666667,-96.9807566666667,6.8,11.3,316,997.18,4.7,80,10.41,0.0,1024.79,261.2
2019-10-02 01:20,50.6304466666667,-96.9807583333333,6.4,9.7,316,997.39,4.6,80,10.41,0.0,1025.02,261.2
2019-10-02 01:30,50.6304466666667,-96.9807583333333,6.3,9.2,314,997.48,4.6,80,10.39,0.0,1025.11,261.2
2019-10-02 01:40,50.6304466666667,-96.9807583333333,6.5,8.6,308,997.44,4.5,81,10.40,0.0,1025.08,261.2
2019-10-02 01:50,50.6304466666667,-96.9807583333333,6.3,9.9,305,997.49,4.4,82,10.42,0.0,1025.13,261.2
2019-10-02 02:00,50.6304466666667,-96.9807583333333,5.7,7.8,306,997.58,4.3,83,10.45,0.0,1025.23,278.8
2019-10-02 02:10,50.630425,-96.9807516666667,5.3,8.6,296,997.74,4.3,84,10.45,0.0,1025.40,278.8
2019-10-02 02:20,50.6304466666667,-96.98077,5.3,8.7,299,997.76,4.2,83,10.46,0.0,1025.42,278.8
2019-10-02 02:30,50.63045,-96.9807616666667,5.8,8.3,302,997.76,4.2,83,10.46,0.0,1025.43,278.8
2019-10-02 02:40,50.6304516666667,-96.9807616666667,6.4,9.4,307,997.68,4.1,83,10.44,0.0,1025.35,278.8
2019-10-02 02:50,50.6304516666667,-96.9807616666667,6.0,8.6,307,997.78,4.1,83,10.42,0.0,1025.46,278.8
2019-10-02 03:00,50.6304516666667,-96.98076,5.5,8.1,303,997.95,4.2,82,10.44,0.0,1025.65,347.4
2019-10-02 03:10,50.6304516666667,-96.9807616666667,5.5,9.0,298,998.03,4.2,82,10.45,0.0,1025.72,347.4
2019-10-02 03:20,50.6304516666667,-96.9807616666667,6.3,9.5,304,998.12,4.2,82,10.39,0.0,1025.82,347.4
2019-10-02 03:30,50.6304533333333,-96.9807633333333,6.7,9.7,307,998.14,4.2,81,10.38,0.0,1025.85,347.4
2019-10-02 03:40,50.6304533333333,-96.9807633333333,7.6,10.4,308,998.20,4.2,81,10.39,0.0,1025.92,347.4
2019-10-02 03:50,50.6304516666667,-96.9807633333333,6.4,9.4,309,998.31,4.1,81,10.40,0.0,1026.03,347.4
2019-10-02 04:00,50.6304516666667,-96.9807633333333,5.6,8.1,310,998.39,4.1,83,10.40,0.0,1026.12,360.0
2019-10-02 04:10,50.6304516666667,-96.9807633333333,6.9,9.4,311,998.38,4.1,83,10.38,0.0,1026.12,360.0
2019-10-02 04:20,50.63045,-96.9807633333333,7.1,10.4,309,998.39,4.0,84,10.39,0.0,1026.13,360.0
2019-10-02 04:30,50.6304416666667,-96.9807583333333,6.5,9.9,308,998.45,3.9,86,10.40,0.0,1026.20,360.0
2019-10-02 04:40,50.6304483333333,-96.9807616666667,6.9,10.3,314,998.42,3.7,91,10.40,0.0,1026.18,360.0
2019-10-02 04:50,50.6304516666667,-96.9807616666667,7.4,10.5,307,998.45,3.4,95,10.38,0.0,1026.22,360.0
2019-10-02 05:00,50.63045,-96.98076,6.8,10.1,301,998.50,3.3,97,10.38,0.0,1026.28,360.0
2019-10-02 05:10,50.63044,-96.980755,6.6,9.7,301,998.37,3.2,99,10.39,0.0,1026.14,360.0
2019-10-02 05:20,50.630445,-96.9807566666667,5.9,8.6,304,998.31,3.2,99,10.38,0.0,1026.09,360.0
2019-10-02 05:30,50.6304466666667,-96.9807583333333,7.6,11.8,305,998.30,3.2,99,10.38,0.0,1026.08,360.0
2019-10-02 05:40,50.6304466666667,-96.9807533333333,8.1,11.3,310,998.22,3.2,99,10.36,0.0,1026.00,360.0
2019-10-02 05:50,50.6304483333333,-96.980755,7.6,11.6,310,998.27,3.2,99,10.38,0.0,1026.05,360.0
2019-10-02 06:00,50.6304466666667,-96.9807566666667,7.6,10.7,306,998.34,3.1,99,10.37,0.0,1026.13,360.0
2019-10-02 06:10,50.6304366666667,-96.9807566666667,7.0,10.9,314,998.35,3.1,99,10.34,0.0,1026.14,360.0
2019-10-02 06:20,50.630445,-96.98076,7.4,10.4,309,998.32,3.0,99,10.33,0.0,1026.13,360.0
2019-10-02 06:30,50.6304416666667,-96.980755,7.3,9.9,315,998.42,3.0,99,10.31,0.0,1026.24,360.0
2019-10-02 06:40,50.6304416666667,-96.9807583333333,7.4,9.9,310,998.49,2.9,99,10.29,0.0,1026.32,360.0
2019-10-02 06:50,50.63044,-96.9807566666667,7.4,10.5,308,998.61,2.9,99,10.28,0.0,1026.45,360.0
2019-10-02 07:00,50.63044,-96.9807583333333,7.2,10.6,305,998.67,2.9,99,10.29,0.0,1026.52,165.5
2019-10-02 07:10,50.6304416666667,-96.98076,7.0,10.5,317,998.69,2.9,99,10.31,0.0,1026.55,165.5
2019-10-02 07:20,50.6304416666667,-96.9807583333333,6.8,10.0,324,998.72,3.0,99,10.29,0.0,1026.58,165.5
2019-10-02 07:30,50.6304416666667,-96.9807566666667,6.7,9.6,314,998.80,2.8,99,10.31,0.0,1026.66,165.5
2019-10-02 07:40,50.6304433333333,-96.9807566666667,6.9,9.2,321,998.87,2.8,99,10.32,0.0,1026.74,165.5
2019-10-02 07:50,50.6304666666667,-96.980755,7.2,10.6,319,998.94,2.8,99,10.31,0.0,1026.81,165.5
2019-10-02 08:00,50.630445,-96.980745,7.1,10.0,326,998.94,2.7,99,10.32,0.0,1026.81,167.4
2019-10-02 08:10,50.6304416666667,-96.98075,6.3,9.0,319,998.88,2.6,99,10.31,0.0,1026.77,167.4
2019-10-02 08:20,50.6304433333333,-96.9807516666667,6.7,9.1,315,998.85,2.5,99,10.30,0.0,1026.75,167.4
2019-10-02 08:30,50.6304416666667,-96.9807516666667,7.0,9.8,320,998.81,2.5,99,10.29,0.0,1026.70,167.4
2019-10-02 08:40,50.6304416666667,-96.9807533333333,6.1,8.9,310,998.79,2.5,99,10.27,0.0,1026.68,167.4
2019-10-02 08:50,50.6304416666667,-96.9807566666667,7.0,10.5,317,998.75,2.4,99,10.26,0.0,1026.65,167.4
2019-10-02 09:00,50.630445,-96.980755,6.9,11.2,324,998.80,2.5,99,10.25,0.0,1026.69,360.0
2019-10-02 09:10,50.63045,-96.9807583333333,7.3,10.0,317,998.75,2.4,99,10.25,0.0,1026.65,360.0
2019-10-02 09:20,50.6304466666667,-96.98076,7.5,11.2,315,998.77,2.3,99,10.23,0.0,1026.67,360.0
2019-10-02 09:30,50.6304466666667,-96.98076,8.2,11.8,316,998.78,2.3,99,10.22,0.0,1026.69,360.0
2019-10-02 09:40,50.6304483333333,-96.9807666666667,7.9,11.6,314,998.88,2.3,99,10.21,0.0,1026.79,360.0
2019-10-02 09:50,50.6304483333333,-96.9807666666667,7.9,11.2,313,999.01,2.3,99,10.19,0.0,1026.93,360.0
2019-10-02 10:00,50.63045,-96.9807666666667,6.9,9.5,309,999.08,2.3,99,10.17,0.0,1027.01,345.5
2019-10-02 10:10,50.6304483333333,-96.980765,7.1,10.2,312,999.03,2.3,99,10.16,0.0,1026.96,345.5
2019-10-02 10:20,50.6304483333333,-96.9807633333333,7.5,9.9,311,999.05,2.2,99,10.17,0.0,1026.98,345.5
2019-10-02 10:30,50.6304483333333,-96.9807633333333,7.4,11.0,315,999.02,2.3,99,10.17,0.0,1026.95,345.5
2019-10-02 10:40,50.6304466666667,-96.9807633333333,7.2,10.7,314,999.09,2.3,99,10.17,0.0,1027.03,345.5
2019-10-02 10:50,50.6304483333333,-96.9807633333333,6.0,9.2,311,999.16,2.3,99,10.16,0.0,1027.09,345.5
2019-10-02 11:00,50.6304483333333,-96.9807616666667,6.4,9.6,315,999.14,2.4,99,10.17,0.0,1027.08,305.3
2019-10-02 11:10,50.6304233333333,-96.9807533333333,7.6,11.5,318,999.15,2.4,99,10.17,0.0,1027.08,305.3
2019-10-02 11:20,50.6304433333333,-96.9807583333333,8.1,11.7,320,999.15,2.5,99,10.18,0.0,1027.08,305.3
2019-10-02 11:30,50.630415,-96.98072,7.8,10.7,318,999.25,2.5,99,10.17,0.0,1027.19,305.3
2019-10-02 11:40,50.6304566666667,-96.9808033333333,7.3,10.7,319,999.41,2.5,99,10.17,0.0,1027.35,305.3
2019-10-02 11:50,50.63045,-96.980765,7.2,10.1,319,999.49,2.5,99,10.17,0.0,1027.43,305.3
2019-10-02 12:00,50.6304433333333,-96.9807583333333,6.9,10.0,315,999.50,2.4,99,10.18,0.0,1027.44,0.0
2019-10-02 12:10,50.630445,-96.98076,7.0,10.2,315,999.60,2.4,99,10.18,0.0,1027.55,0.0
2019-10-02 12:20,50.630445,-96.9807616666667,6.7,9.0,314,999.67,2.4,99,10.17,0.0,1027.63,0.0
2019-10-02 12:30,50.630445,-96.9807616666667,6.2,8.6,315,999.68,2.5,99,10.17,0.0,1027.63,0.0
2019-10-02 12:40,50.630445,-96.980765,5.9,8.3,313,999.74,2.5,99,10.16,0.0,1027.69,0.0
2019-10-02 12:50,50.630445,-96.980765,6.3,10.1,321,999.69,2.6,99,10.13,0.0,1027.63,0.0
2019-10-02 13:00,50.630455,-96.9807616666667,7.0,10.8,325,999.58,2.7,99,10.14,0.0,1027.51,90.0
2019-10-02 13:10,50.6304533333333,-96.98076,6.7,10.2,323,999.51,2.7,99,10.15,0.0,1027.44,90.0
2019-10-02 13:20,50.63045,-96.9807566666667,5.8,9.2,308,999.49,2.5,99,10.16,0.0,1027.42,90.0
2019-10-02 13:30,50.6304516666667,-96.98076,4.9,7.8,309,999.59,2.6,99,10.17,0.0,1027.52,90.0
2019-10-02 13:40,50.63044,-96.9807616666667,7.2,11.2,318,999.49,2.7,99,10.17,0.0,1027.41,90.0
2019-10-02 13:50,50.6304616666667,-96.9807666666667,7.8,10.7,321,999.53,2.8,99,10.21,0.0,1027.46,90.0
2019-10-02 14:00,50.6304566666667,-96.9807666666667,7.0,9.6,318,999.72,2.8,97,10.25,0.0,1027.65,311.7
2019-10-02 14:10,50.6304566666667,-96.980765,5.1,7.0,311,999.89,2.9,96,10.28,0.0,1027.82,311.7
2019-10-02 14:20,50.630455,-96.980765,6.2,8.0,315,999.88,3.0,95,10.28,0.0,1027.81,311.7
2019-10-02 14:30,50.6304566666667,-96.980765,6.6,8.4,315,999.85,3.1,95,10.29,0.0,1027.77,311.7
2019-10-02 14:40,50.6304633333333,-96.9807666666667,5.4,8.5,316,999.90,3.2,94,10.27,0.0,1027.81,311.7
2019-10-02 14:50,50.6304533333333,-96.9807666666667,5.5,8.1,322,1000.01,3.4,93,10.28,0.0,1027.90,311.7
2019-10-02 15:00,50.6304516666667,-96.9807733333333,6.4,8.6,319,1000.03,3.5,93,10.28,0.0,1027.92,347.4
2019-10-02 15:10,50.6304466666667,-96.980785,5.1,7.3,314,1000.10,3.4,93,10.22,0.0,1028.00,347.4
2019-10-02 15:20,50.6296516666667,-96.98091,4.5,6.9,304,1000.06,3.5,92,10.11,0.3,1027.95,347.4
2019-10-02 15:30,50.6278333333333,-96.9479316666667,7.6,20.1,52,999.82,3.8,90,10.35,7.6,1027.68,347.4
2019-10-02 15:40,50.6265066666667,-96.8999016666667,15.4,20.0,89,999.52,4.4,84,10.97,11.0,1027.35,347.4
2019-10-02 15:50,50.63337,-96.855895,16.3,20.1,77,999.41,4.5,81,11.68,10.3,1027.22,347.4
2019-10-02 16:00,50.6590966666667,-96.8314866666667,14.1,19.2,50,999.67,4.5,84,12.02,10.8,1027.49,73.1
2019-10-02 16:10,50.6864883333333,-96.8111583333333,14.3,18.0,40,999.68,4.6,81,12.16,10.9,1027.48,73.1
2019-10-02 16:20,50.7144783333333,-96.79263,14.8,19.3,35,999.60,4.6,79,12.29,10.9,1027.40,73.1
2019-10-02 16:30,50.7425316666667,-96.7741216666667,14.9,17.9,25,999.60,4.6,76,12.40,10.9,1027.39,73.1
2019-10-02 16:40,50.7700466666667,-96.7538033333333,15.1,18.7,29,999.57,4.5,79,12.48,10.9,1027.35,73.1
2019-10-02 16:50,50.7893833333333,-96.73838,12.9,19.6,41,999.64,4.5,76,12.52,7.8,1027.43,73.1
2019-10-02 17:00,50.7897683333333,-96.73793,3.4,9.4,62,999.73,4.5,75,12.53,0.2,1027.52,43.9
2019-10-02 17:10,50.79448,-96.7391766666667,6.7,13.1,37,999.50,4.5,77,12.54,1.7,1027.28,43.9
2019-10-02 17:20,50.8160133333333,-96.7513316666667,11.5,17.4,14,999.43,4.6,75,12.56,8.2,1027.19,43.9
2019-10-02 17:30,50.8228866666667,-96.75499,5.8,10.4,40,999.61,4.7,75,12.58,2.6,1027.34,43.9
2019-10-02 17:40,50.8296183333333,-96.7592383333333,7.5,10.2,33,999.46,4.7,75,12.60,2.6,1027.18,43.9
2019-10-02 17:50,50.8363766666667,-96.763235,7.2,10.7,35,999.45,4.7,76,12.61,2.6,1027.17,43.9
2019-10-02 18:00,50.8459133333333,-96.7681316666667,6.8,12.5,18,999.48,4.6,74,12.59,3.6,1027.19,31.9
2019-10-02 18:10,50.8456616666667,-96.7683083333333,3.4,5.7,18,999.48,4.5,73,12.58,0.1,1027.20,31.9
2019-10-02 18:20,50.8456133333333,-96.7683166666667,7.1,10.1,19,999.18,4.7,74,12.57,0.0,1026.88,31.9
2019-10-02 18:30,50.8456333333333,-96.7683916666667,7.5,10.7,23,998.89,4.6,74,12.57,0.0,1026.60,31.9
2019-10-02 18:40,50.8458416666667,-96.768555,6.4,11.5,55,998.94,4.7,74,12.56,0.1,1026.65,31.9
2019-10-02 18:50,50.84569,-96.7685683333333,7.6,11.2,39,998.90,4.7,75,12.53,0.1,1026.61,31.9
2019-10-02 19:00,50.8456533333333,-96.7685433333333,6.1,8.3,32,998.90,4.7,77,12.49,0.0,1026.60,12.0
2019-10-02 19:10,50.8456933333333,-96.7685583333333,5.5,8.9,54,998.97,4.8,77,12.48,0.0,1026.67,12.0
2019-10-02 19:20,50.845635,-96.76845,6.5,10.5,51,998.86,4.9,77,12.50,0.0,1026.54,12.0
2019-10-02 19:30,50.8456033333333,-96.768375,7.4,11.5,24,998.74,4.8,75,12.53,0.0,1026.43,12.0
2019-10-02 19:40,50.8560866666667,-96.7757666666667,9.6,14.6,32,998.53,5.0,75,12.55,4.1,1026.20,12.0
2019-10-02 19:50,50.883075,-96.7978733333333,13.3,17.2,6,998.31,4.9,75,12.55,10.9,1025.98,12.0
2019-10-02 20:00,50.90973,-96.821125,13.4,17.1,8,998.12,5.0,76,12.43,11.0,1025.78,336.4
2019-10-02 20:10,50.9365616666667,-96.84391,14.6,18.1,359,998.12,5.0,75,12.06,11.0,1025.78,336.4
2019-10-02 20:20,50.9491,-96.8548816666667,9.8,17.1,23,998.41,5.1,75,11.69,5.2,1026.07,336.4
2019-10-02 20:30,50.9555216666667,-96.8600616666667,5.8,9.0,42,998.48,5.2,71,11.55,2.6,1026.14,336.4
2019-10-02 20:40,50.961985,-96.86567,5.1,9.8,50,998.39,5.4,71,11.46,2.7,1026.04,336.4
2019-10-02 20:50,50.9698816666667,-96.8721466666667,8.5,13.8,51,998.07,5.4,74,11.46,3.2,1025.71,336.4
2019-10-02 21:00,50.97509,-96.8755166666667,6.8,13.8,42,998.11,5.2,73,11.31,2.0,1025.75,332.4
2019-10-02 21:10,50.9749916666667,-96.8755033333333,8.2,12.3,58,998.00,5.2,74,11.22,0.0,1025.64,332.4
2019-10-02 21:20,50.9750366666667,-96.8755416666667,7.0,11.1,56,997.99,5.1,73,11.20,0.0,1025.63,332.4
2019-10-02 21:30,50.9750766666667,-96.8755366666667,5.9,10.0,70,997.85,5.1,72,11.18,0.0,1025.48,332.4
2019-10-02 21:40,50.9751016666667,-96.8755233333333,8.1,10.2,81,997.81,5.2,72,11.17,0.0,1025.44,332.4
2019-10-02 21:50,50.9750933333333,-96.8755216666667,7.4,11.1,86,997.69,5.3,71,11.18,0.0,1025.31,332.4
2019-10-02 22:00,50.97517,-96.8754716666667,5.6,9.4,80,997.62,5.4,72,11.20,0.0,1025.22,332.5
2019-10-02 22:10,50.9750766666667,-96.8755333333333,7.2,9.5,78,997.55,5.3,70,11.20,0.0,1025.15,332.5
2019-10-02 22:20,50.9621866666667,-96.8768383333333,3.8,9.3,127,997.61,5.3,71,11.21,4.7,1025.21,332.5
2019-10-02 22:30,50.9317383333333,-96.8785733333333,8.2,16.8,160,997.51,5.4,71,11.43,11.0,1025.09,332.5
2019-10-02 22:40,50.901265,-96.879635,10.3,15.5,173,997.38,5.5,72,11.92,11.0,1024.95,332.5
2019-10-02 22:50,50.8707866666667,-96.877385,13.3,16.6,148,997.06,5.6,70,12.15,11.0,1024.63,332.5
2019-10-02 23:00,50.8402166666667,-96.875255,10.0,13.5,143,997.12,5.6,68,12.21,11.0,1024.69,206.2
2019-10-02 23:10,50.809925,-96.88167,7.3,10.0,156,997.22,5.8,69,12.25,11.0,1024.79,206.2
2019-10-02 23:20,50.779415,-96.8866516666667,6.8,10.3,151,997.25,5.9,69,12.20,11.0,1024.81,206.2
2019-10-02 23:30,50.7487433333333,-96.8931366666667,7.6,12.0,140,996.99,6.1,70,12.16,11.1,1024.54,206.2
